TimeAST,TemperatureF,Dew PointF,Humidity,Sea Level PressureIn,VisibilityMPH,Wind Direction,Wind SpeedMPH,Gust SpeedMPH,PrecipitationIn,Events,Conditions,WindDirDegrees,DateUTC
12:00 AM,78.8,75.2,89,29.92,6.2,ESE,13.8,-,N/A,,Mostly Cloudy,110,2013-11-02 04:00:00
1:00 AM,78.8,75.2,89,29.89,6.2,ESE,12.7,-,N/A,Rain,Light Rain Showers,120,2013-11-02 05:00:00
2:00 AM,78,76,93,29.88,11,ESE,12.7,,,,Widespread Dust,110,2013-11-02 06:00:00
2:00 AM,78.8,77.0,94,29.86,6.2,ESE,12.7,-,N/A,,Mostly Cloudy,110,2013-11-02 06:00:00
3:00 AM,78.8,75.2,89,29.86,6.2,East,11.5,-,N/A,,Mostly Cloudy,100,2013-11-02 07:00:00
4:00 AM,78.8,77.0,94,29.86,6.2,East,9.2,-,N/A,,Mostly Cloudy,100,2013-11-02 08:00:00
5:00 AM,80,76,84,29.87,11,East,9.2,,,,Widespread Dust,100,2013-11-02 09:00:00
5:00 AM,80.6,75.2,84,29.86,6.2,East,9.2,-,N/A,,Mostly Cloudy,100,2013-11-02 09:00:00
6:00 AM,80.6,75.2,84,29.86,6.2,East,9.2,-,N/A,,Scattered Clouds,100,2013-11-02 10:00:00
7:00 AM,82.4,77.0,84,29.89,6.2,ESE,15.0,-,N/A,,Scattered Clouds,120,2013-11-02 11:00:00
8:00 AM,84,77,74,29.94,9,SE,12.7,,,,Widespread Dust,130,2013-11-02 12:00:00
8:00 AM,84.2,77.0,79,29.92,6.2,SE,12.7,-,N/A,,Scattered Clouds,130,2013-11-02 12:00:00
9:00 AM,84.2,77.0,79,29.95,6.2,ESE,17.3,-,N/A,,Partly Cloudy,120,2013-11-02 13:00:00
10:00 AM,86.0,78.8,79,29.95,6.2,SE,18.4,-,N/A,,Partly Cloudy,130,2013-11-02 14:00:00
11:00 AM,86,78,72,29.94,11,ESE,17.3,,,,Widespread Dust,120,2013-11-02 15:00:00
11:00 AM,86.0,78.8,79,29.95,6.2,ESE,17.3,28.8,N/A,,Scattered Clouds,120,2013-11-02 15:00:00
12:00 PM,86.0,77.0,74,29.92,6.2,ESE,18.4,-,N/A,,Partly Cloudy,120,2013-11-02 16:00:00
1:00 PM,86.0,78.8,79,29.89,6.2,ESE,19.6,-,N/A,,Partly Cloudy,120,2013-11-02 17:00:00
2:00 PM,85,78,75,29.86,10,ESE,17.3,,,,Widespread Dust,120,2013-11-02 18:00:00
2:00 PM,84.2,78.8,84,29.86,6.2,ESE,17.3,-,N/A,,Scattered Clouds,120,2013-11-02 18:00:00
3:00 PM,86.0,78.8,79,29.83,6.2,SE,17.3,-,N/A,,Scattered Clouds,130,2013-11-02 19:00:00
4:00 PM,84.2,78.8,84,29.83,6.2,ESE,19.6,-,N/A,,Scattered Clouds,120,2013-11-02 20:00:00
5:00 PM,83,77,79,29.84,10,ESE,18.4,,,,Widespread Dust,120,2013-11-02 21:00:00
5:00 PM,82.4,77.0,84,29.83,6.2,ESE,18.4,-,N/A,,Mostly Cloudy,120,2013-11-02 21:00:00
6:00 PM,82.4,77.0,84,29.83,6.2,ESE,13.8,-,N/A,,Scattered Clouds,120,2013-11-02 22:00:00
7:00 PM,82.4,77.0,84,29.86,6.2,ESE,13.8,-,N/A,,Scattered Clouds,120,2013-11-02 23:00:00
8:00 PM,82,78,83,29.89,10,ESE,17.3,,,,Widespread Dust,120,2013-11-03 00:00:00
8:00 PM,82.4,77.0,84,29.89,6.2,ESE,17.3,-,N/A,,Scattered Clouds,120,2013-11-03 00:00:00
9:00 PM,82.4,77.0,84,29.89,6.2,ESE,15.0,-,N/A,,Scattered Clouds,110,2013-11-03 01:00:00
10:00 PM,82.4,75.2,79,29.89,6.2,ESE,16.1,-,N/A,,Scattered Clouds,120,2013-11-03 02:00:00
11:00 PM,82,75,74,29.92,11,ESE,17.3,,,,Widespread Dust,120,2013-11-03 03:00:00
11:00 PM,82.4,75.2,79,29.92,6.2,ESE,17.3,-,N/A,,Mostly Cloudy,120,2013-11-03 03:00:00